[[{"header":{"parameterUnit":"m.s-1","parameterCategory":1,"la1":30.2991,"la2":30.254,"lo1":-89.0895,"lo2":-89.0444,"dy":0.0017,"dx":0.0017,"nx":28,"ny":28,"refTime":"2023-08-15T21:00:00:Z","depth":0,"parameterNumber":2,"parameterNumberName":"U-component_of_WINDS"},"data":[0,0,0,0,0,0,0,0,0,0,0,0,0,0,0,0,0,0,0,0,0,0,0,0,0,0,0,0,0,0,0,0,0,0,0,0,0,0,0,0,0,0,0,0,0,0,0,0,0,0,0,0,0,0,0,0,0,0,0.7855,0.7855,0,0.7895,0.7896,0.7896,0.7937,0.7937,0.7938,0.7938,0.7981,0.7982,0.7982,0,0,0,0,0,0,0,0,0,0,0,0,0,0.7815,0.7816,0.7855,0.7855,0.7856,0.7895,0.7896,0.7896,0.7937,0.7937,0.7938,0.7939,0.7981,0.7982,0.7983,0,0,0,0,0,0,0,0,0,0,0,0,0,0.7842,0.7816,0.7855,0.7881,0.7883,0.7895,0.7896,0.7896,0.7936,0.7937,0.7938,0.7939,0.7981,0.7982,0.7983,0.7972,0,0,0.7986,0.7986,0,0,0,0,0,0,0,0,0.784,0.7843,0.7876,0.7879,0.7882,0.7912,0.7897,0.7922,0.7936,0.7916,0.7938,0.7939,0.7958,0.796,0.7966,0.7974,0.7976,0.7986,0.7986,0.7987,0.7987,0,0,0,0,0,0,0,0.7838,0.7842,0.7871,0.7877,0.788,0.7891,0.7896,0.7902,0.7932,0.7918,0.7921,0.7925,0.7959,0.7965,0.7968,0.7977,0.7986,0.7986,0.7987,0.7987,0.798,0.798,0,0,0,0,0,0,0.7832,0.784,0.787,0.7872,0.7863,0.7891,0.7896,0.7901,0.7932,0.7937,0.7925,0.7927,0.7963,0.7966,0.7969,0.796,0.7987,0.7988,0.7988,0.7981,0.798,0.7979,0,0,0,0,0,0,0.7831,0.7834,0.7868,0.7857,0.7862,0.7891,0.7896,0.7902,0.7908,0.7937,0.7943,0.7925,0.7964,0.7968,0.7972,0.7962,0.7988,0.7989,0.7982,0.7981,0.798,0.7942,0,0,0,0,0,0,0.783,0.7834,0.783,0.7856,0.7862,0.7869,0.7896,0.7902,0.7909,0.7913,0.7939,0.7944,0.7965,0.797,0.7972,0.7964,0.799,0.7983,0.7981,0.798,0.7944,0.7939,0.7935,0,0,0,0,0,0.7828,0.7817,0.7829,0.7833,0.7858,0.7868,0.7872,0.7895,0.7908,0.7905,0.7924,0.7943,0.7963,0.797,0.7973,0.7965,0.7984,0.7982,0.798,0.7946,0.794,0.7936,0,0,0,0,0,0,0.7789,0.7821,0.7835,0.7832,0.7847,0.7875,0.7871,0.7889,0.7901,0.7904,0.7933,0.7939,0.7939,0.7953,0.796,0.7958,0.7976,0.7975,0.7949,0.7944,0.794,0.7937,0.799,0,0,0,0,0,0.778,0.7785,0.7813,0.7808,0.7815,0.7842,0.7847,0.7864,0.7881,0.7888,0.7907,0.7923,0.7933,0.7939,0.795,0.7946,0.7953,0.7942,0.7938,0.7934,0.7933,0.7933,0.7929,0.7974,0.7974,0.7974,0,0,0.7762,0.778,0.7781,0.7801,0.7815,0.782,0.7847,0.7851,0.7856,0.7889,0.7894,0.7908,0.7928,0.7928,0.7929,0.7939,0.7922,0.7932,0.7929,0.793,0.7931,0.7927,0.7923,0.7972,0.7973,0.7973,0,0,0.7731,0.7745,0.7743,0.7756,0.7776,0.7794,0.7793,0.7819,0.783,0.7835,0.786,0.7866,0.7882,0.7896,0.7905,0.7881,0.79,0.7883,0.7862,0.7862,0.7858,0.7855,0.7848,0.7844,0.7882,0.7882,0.7882,0,0.7706,0.7715,0.774,0.7743,0.7751,0.7781,0.7779,0.7791,0.7814,0.7819,0.783,0.7852,0.7867,0.7872,0.7866,0.7872,0.7873,0.7881,0.7856,0.7854,0.7851,0.7845,0.7841,0.788,0.788,0.788,0.7881,0,0.7683,0.7689,0.7685,0.7706,0.7714,0.7715,0.7741,0.7746,0.7762,0.7779,0.7785,0.7805,0.782,0.7823,0.7839,0.783,0.7835,0.7851,0.787,0.7845,0.7839,0.7836,0.7877,0.7878,0.7878,0.7879,0,0,0.7629,0.7664,0.7662,0.7673,0.7697,0.7703,0.7705,0.772,0.7725,0.774,0.7744,0.7757,0.7772,0.7782,0.78,0.78,0.7781,0.7816,0.7817,0.781,0.7773,0.7762,0.7758,0.7793,0.7793,0.7793,0.7772,0,0.7603,0.7609,0.7632,0.7632,0.7638,0.7667,0.7669,0.7685,0.7701,0.771,0.7728,0.7737,0.7756,0.7762,0.7763,0.7783,0.7774,0.7785,0.7798,0.7799,0.7793,0.7755,0.7743,0.7723,0.777,0.7769,0.7769,0,0.7574,0.7587,0.7587,0.7612,0.7616,0.7618,0.7634,0.7641,0.766,0.7672,0.7684,0.7704,0.771,0.7728,0.7737,0.7743,0.775,0.7761,0.7761,0.7764,0.7783,0.7758,0.7717,0.7714,0.7765,0.7766,0.7766,0,0.7536,0.7553,0.7556,0.7564,0.7593,0.7594,0.7606,0.7626,0.7634,0.7648,0.7654,0.7669,0.7678,0.7689,0.7714,0.7724,0.772,0.774,0.7731,0.7731,0.773,0.773,0.769,0.7733,0.7733,0.7733,0.7733,0,0.7505,0.7504,0.7539,0.754,0.7541,0.7568,0.7568,0.7583,0.76,0.7606,0.7632,0.7637,0.7669,0.7678,0.7697,0.7702,0.7706,0.7716,0.7722,0.7714,0.7713,0.772,0.7722,0.7732,0.7732,0.7732,0.7733,0,0.7462,0.7485,0.749,0.7518,0.7525,0.7524,0.7548,0.7551,0.7569,0.7576,0.758,0.7608,0.762,0.7646,0.7665,0.7678,0.7679,0.7688,0.7672,0.7676,0.7666,0.7667,0.763,0.7627,0.7671,0.7671,0.767,0,0.7442,0.7442,0.7469,0.7475,0.7486,0.7495,0.7503,0.753,0.7537,0.756,0.7561,0.7575,0.7588,0.7606,0.7629,0.7644,0.7654,0.764,0.7657,0.765,0.7655,0.7655,0.7656,0.7637,0.7636,0.7635,0.7635,0,0.7403,0.7414,0.7425,0.7439,0.7448,0.7461,0.7476,0.7479,0.751,0.7517,0.753,0.754,0.7559,0.7574,0.7592,0.7607,0.7626,0.763,0.7629,0.7622,0.7613,0.7619,0.7663,0.763,0.7631,0.7631,0.7632,0.7632,0.7371,0.7373,0.7392,0.7404,0.7417,0.743,0.7435,0.7454,0.7464,0.7482,0.7498,0.7509,0.753,0.7557,0.757,0.758,0.759,0.7588,0.7588,0.7587,0.7585,0.7611,0.7584,0.7584,0.7584,0.7584,0.7584,0,0.7334,0.7348,0.7358,0.7378,0.7387,0.7404,0.7421,0.7428,0.7437,0.7454,0.7467,0.7482,0.7496,0.752,0.7537,0.754,0.755,0.7544,0.7544,0.7548,0.7575,0.7574,0.7536,0.7536,0.7536,0.7536,0.7536,0.7536,0.7316,0.732,0.7334,0.7346,0.736,0.7371,0.738,0.7393,0.7407,0.7422,0.7434,0.7449,0.747,0.7488,0.7503,0.751,0.7515,0.7506,0.7516,0.7541,0.7545,0.755,0.755,0.7507,0.7507,0.7488,0.7488,0.7488]},{"header":{"parameterUnit":"m.s-1","parameterCategory":1,"la1":30.2991,"la2":30.254,"lo1":-89.0895,"lo2":-89.0444,"dy":0.0017,"dx":0.0017,"nx":28,"ny":28,"refTime":"2023-08-15T21:00:00:Z","depth":0,"parameterNumber":3,"parameterNumberName":"V-component_of_WINDS"},"data":[0,0,0,0,0,0,0,0,0,0,0,0,0,0,0,0,0,0,0,0,0,0,0,0,0,0,0,0,0,0,0,0,0,0,0,0,0,0,0,0,0,0,0,0,0,0,0,0,0,0,0,0,0,0,0,0,0,0,3.2394,3.2395,0,3.2502,3.2503,3.2504,3.2528,3.2527,3.2526,3.2525,3.2628,3.2631,3.2635,0,0,0,0,0,0,0,0,0,0,0,0,0,3.2202,3.2205,3.2394,3.2395,3.2397,3.2501,3.2503,3.2504,3.2528,3.2527,3.2526,3.2525,3.2627,3.2631,3.2635,0,0,0,0,0,0,0,0,0,0,0,0,0,3.2295,3.2206,3.2394,3.2421,3.2425,3.2501,3.2503,3.2505,3.2528,3.2527,3.2526,3.2525,3.2626,3.2631,3.2636,3.269,0,0,3.2651,3.2654,0,0,0,0,0,0,0,0,3.2289,3.2302,3.2416,3.242,3.2424,3.25,3.2473,3.2566,3.2528,3.2489,3.2525,3.2524,3.2586,3.2594,3.2617,3.2695,3.2699,3.2652,3.2655,3.2657,3.2659,0,0,0,0,0,0,0,3.2283,3.2297,3.2436,3.2417,3.2422,3.2426,3.2438,3.2491,3.2542,3.2492,3.2494,3.2507,3.2588,3.2612,3.2619,3.2701,3.2652,3.2656,3.2659,3.2661,3.2827,3.2828,0,0,0,0,0,0,3.2273,3.2292,3.2433,3.244,3.2353,3.243,3.2444,3.2477,3.2542,3.2551,3.2508,3.2507,3.2603,3.2613,3.2623,3.269,3.2657,3.2662,3.2665,3.2825,3.2827,3.2828,0,0,0,0,0,0,3.2269,3.2285,3.2429,3.2366,3.2385,3.2435,3.2472,3.2479,3.2503,3.2554,3.2562,3.2523,3.2603,3.2616,3.2673,3.2694,3.2664,3.2669,3.2824,3.2826,3.2828,3.2824,0,0,0,0,0,0,3.2263,3.2284,3.2306,3.2367,3.2388,3.2479,3.2473,3.2482,3.2513,3.2514,3.257,3.2578,3.2603,3.2665,3.2678,3.27,3.2673,3.2822,3.2825,3.2827,3.2822,3.2826,3.2828,0,0,0,0,0,3.2256,3.23,3.2307,3.2324,3.2418,3.2481,3.2492,3.2522,3.2515,3.2537,3.2569,3.2577,3.269,3.2671,3.2686,3.2709,3.2821,3.2824,3.2827,3.2821,3.2825,3.2828,0,0,0,0,0,0,3.2238,3.2308,3.2317,3.2383,3.2426,3.2485,3.2513,3.2525,3.2569,3.2568,3.2601,3.2613,3.2668,3.2695,3.2673,3.2764,3.2755,3.2761,3.2745,3.2749,3.2752,3.2744,3.2677,0,0,0,0,0,3.2242,3.2289,3.2347,3.2399,3.242,3.2463,3.2491,3.2511,3.2555,3.2573,3.2609,3.2651,3.2695,3.2724,3.2768,3.2827,3.2838,3.285,3.2853,3.2855,3.2859,3.2891,3.2896,3.2838,3.2838,3.2838,0,0,3.225,3.2294,3.2321,3.2396,3.2432,3.2478,3.2478,3.2527,3.256,3.258,3.2637,3.2665,3.2712,3.2771,3.2798,3.2794,3.2878,3.2859,3.286,3.2863,3.2894,3.29,3.2905,3.284,3.284,3.2839,0,0,3.2288,3.2327,3.2374,3.241,3.2465,3.2493,3.2504,3.2562,3.2582,3.264,3.2655,3.2694,3.2771,3.2804,3.2831,3.2881,3.2889,3.2894,3.2909,3.2939,3.2944,3.2948,3.2965,3.297,3.2899,3.2899,3.2899,0,3.229,3.2362,3.2396,3.2444,3.2475,3.2498,3.2544,3.2577,3.2642,3.2662,3.2657,3.2754,3.2788,3.2854,3.2866,3.2887,3.2899,3.2888,3.2941,3.2946,3.295,3.2966,3.2972,3.2899,3.2899,3.2899,3.2899,0,3.2361,3.2411,3.2441,3.2507,3.2542,3.2588,3.2627,3.2658,3.2674,3.2702,3.276,3.2801,3.2854,3.2871,3.2886,3.2938,3.2934,3.2935,3.2926,3.2955,3.2971,3.2977,3.2899,3.2899,3.2899,3.2899,0,0,3.2389,3.2474,3.2484,3.2514,3.2576,3.2614,3.266,3.2714,3.2739,3.2783,3.2822,3.2886,3.2888,3.2918,3.2937,3.2964,3.2999,3.2962,3.2963,3.2966,3.3058,3.3056,3.3063,3.3006,3.3007,3.3008,3.3053,0,3.2434,3.2522,3.2553,3.2624,3.2669,3.2691,3.2731,3.2772,3.2799,3.284,3.2868,3.2913,3.2912,3.2931,3.2959,3.2989,3.3018,3.2987,3.304,3.3041,3.3026,3.3071,3.307,3.311,3.306,3.3061,3.3062,0,3.2497,3.2545,3.2621,3.2677,3.2697,3.2733,3.2785,3.2824,3.287,3.2887,3.2922,3.2939,3.2986,3.2975,3.3039,3.3017,3.3041,3.3059,3.3061,3.3066,3.3052,3.3076,3.3124,3.313,3.3072,3.3071,3.307,0,3.2509,3.2591,3.2648,3.2672,3.274,3.2764,3.2793,3.2838,3.2868,3.2912,3.2932,3.298,3.3005,3.3041,3.307,3.3059,3.3131,3.3122,3.3145,3.3144,3.3158,3.3157,3.3209,3.3175,3.3175,3.3175,3.3175,0,3.2554,3.2599,3.2654,3.2688,3.2739,3.2774,3.2822,3.2851,3.2892,3.293,3.2951,3.2986,3.3023,3.3062,3.3085,3.3134,3.3145,3.3159,3.3164,3.3157,3.3155,3.3172,3.3169,3.3177,3.3176,3.3176,3.3176,0,3.2575,3.2614,3.2676,3.2736,3.2751,3.2786,3.2835,3.2868,3.2897,3.2945,3.2958,3.3002,3.3049,3.3082,3.3142,3.3157,3.3209,3.3215,3.3195,3.3197,3.3218,3.3215,3.3282,3.3292,3.3252,3.3252,3.3253,0,3.2601,3.2637,3.2701,3.2729,3.2759,3.2804,3.2836,3.2871,3.2902,3.2957,3.2983,3.3032,3.3073,3.3147,3.3183,3.3228,3.3234,3.3255,3.3241,3.3232,3.3233,3.323,3.3233,3.3256,3.3257,3.3257,3.3257,0,3.2643,3.266,3.2706,3.2759,3.2796,3.2838,3.288,3.2902,3.2944,3.2977,3.3028,3.306,3.3122,3.317,3.3219,3.3246,3.3257,3.3261,3.3269,3.3261,3.3247,3.3254,3.3199,3.3259,3.3259,3.3259,3.3259,3.3259,3.2666,3.2699,3.2749,3.2799,3.2835,3.2874,3.2908,3.2941,3.2985,3.304,3.3057,3.3108,3.3152,3.322,3.3248,3.3286,3.3285,3.3296,3.3298,3.33,3.33,3.3242,3.3295,3.3295,3.3295,3.3295,3.3295,0,3.2708,3.2742,3.2788,3.2847,3.2886,3.2897,3.2944,3.2975,3.3021,3.3062,3.3103,3.3159,3.3206,3.3246,3.3293,3.3317,3.3323,3.3328,3.3326,3.3331,3.3299,3.3287,3.3322,3.3322,3.3322,3.3322,3.3322,3.3322,3.2734,3.279,3.2813,3.2885,3.2918,3.2971,3.2997,3.3032,3.3065,3.3128,3.3168,3.3195,3.3235,3.3285,3.3328,3.3338,3.3354,3.3357,3.3368,3.3337,3.3334,3.3331,3.332,3.336,3.336,3.3397,3.3397,3.3398]}]]